• en France
  • Liste des pays
  • À 7 jours
  • Température de l'eau
  • Carte satellitaire
  • Carte météo
  • Widgets météo
  • user-avatar
    Se connecter

    Météo par heure à Florencia

    Ce jour, 22 Octobre, Lundi

    Heure Température Précipitation Vent Pression Humidité
    00:00 +25°C° 0.6 mm 1 m/s 731 mmHg 94%
    01:00 +24°C° 0.6 mm 1 m/s 731 mmHg 93%
    02:00 +24°C° 0.2 mm 1 m/s 731 mmHg 92%
    03:00 +24°C° 0.2 mm 1 m/s 731 mmHg 91%
    04:00 +24°C° 0.2 mm 1 m/s 731 mmHg 90%
    05:00 +24°C° 0.2 mm 1 m/s 731 mmHg 88%
    06:00 +25°C° 0.2 mm 1 m/s 732 mmHg 86%
    07:00 +25°C° 0.2 mm 1 m/s 732 mmHg 84%
    08:00 +28°C° 0.1 mm 1 m/s 733 mmHg 74%
    09:00 +31°C° 0.1 mm 1 m/s 733 mmHg 64%
    10:00 +34°C° 0.1 mm 1 m/s 733 mmHg 54%
    11:00 +34°C° 0.1 mm 1 m/s 732 mmHg 52%
    12:00 +35°C° 0.1 mm 1 m/s 731 mmHg 51%
    13:00 +36°C° 0.1 mm 1 m/s 730 mmHg 49%
    14:00 +35°C° 0.9 mm 1 m/s 730 mmHg 55%
    15:00 +34°C° 0.9 mm 1 m/s 729 mmHg 61%
    16:00 +33°C° 0.9 mm 1 m/s 729 mmHg 67%
    17:00 +31°C° 2.1 mm 1 m/s 729 mmHg 75%
    18:00 +29°C° 2.1 mm 1 m/s 730 mmHg 84%
    19:00 +25°C° 2.1 mm 0 m/s 730 mmHg 92%
    20:00 +24°C° 2.3 mm 0 m/s 731 mmHg 93%
    21:00 +26°C° 2.3 mm 1 m/s 731 mmHg 93%
    22:00 +26°C° 2.3 mm 1 m/s 732 mmHg 93%
    23:00 +25°C° 1 mm 1 m/s 732 mmHg 93%

    Demain, 23 Octobre, Mardi

    Heure Température Précipitation Vent Pression Humidité
    00:00 +25°C° 1 mm 1 m/s 731 mmHg 93%
    01:00 +25°C° 1 mm 1 m/s 731 mmHg 93%
    02:00 +25°C° 1 mm 1 m/s 731 mmHg 93%
    03:00 +24°C° 1 mm 1 m/s 731 mmHg 92%
    04:00 +24°C° 1 mm 1 m/s 731 mmHg 92%
    05:00 +24°C° 0.3 mm 1 m/s 731 mmHg 90%
    06:00 +25°C° 0.3 mm 1 m/s 732 mmHg 88%
    07:00 +25°C° 0.3 mm 1 m/s 732 mmHg 86%
    08:00 +28°C° 0.1 mm 1 m/s 733 mmHg 75%
    09:00 +31°C° 0.1 mm 1 m/s 733 mmHg 64%
    10:00 +34°C° 0.1 mm 1 m/s 733 mmHg 53%
    11:00 +34°C° 0.4 mm 1 m/s 732 mmHg 55%
    12:00 +34°C° 0.4 mm 1 m/s 731 mmHg 57%
    13:00 +35°C° 0.4 mm 2 m/s 730 mmHg 59%
    14:00 +33°C° 1.4 mm 1 m/s 730 mmHg 66%
    15:00 +32°C° 1.4 mm 1 m/s 729 mmHg 72%
    16:00 +31°C° 1.4 mm 1 m/s 729 mmHg 78%
    17:00 +30°C° 2.1 mm 1 m/s 730 mmHg 83%
    18:00 +28°C° 2.1 mm 1 m/s 730 mmHg 88%
    19:00 +27°C° 2.1 mm 1 m/s 731 mmHg 93%
    20:00 +26°C° 1.2 mm 1 m/s 731 mmHg 94%
    21:00 +26°C° 1.2 mm 1 m/s 732 mmHg 94%
    22:00 +26°C° 1.2 mm 1 m/s 733 mmHg 94%
    23:00 +25°C° 0.7 mm 1 m/s 732 mmHg 94%

    Après-demain, 24 Octobre, Mercredi

    Heure Température Précipitation Vent Pression Humidité
    00:00 +25°C° 0.7 mm 1 m/s 732 mmHg 94%
    01:00 +25°C° 0.7 mm 1 m/s 731 mmHg 93%
    02:00 +24°C° 0 mm 1 m/s 731 mmHg 92%
    03:00 +24°C° 0 mm 1 m/s 731 mmHg 90%
    04:00 +24°C° 0 mm 1 m/s 730 mmHg 88%
    05:00 +25°C° 0 mm 1 m/s 731 mmHg 86%
    06:00 +25°C° 0 mm 1 m/s 731 mmHg 83%
    07:00 +26°C° 0 mm 1 m/s 732 mmHg 81%
    08:00 +29°C° 0 mm 1 m/s 732 mmHg 70%
    09:00 +31°C° 0 mm 1 m/s 733 mmHg 60%
    10:00 +34°C° 0 mm 1 m/s 733 mmHg 50%
    11:00 +34°C° 0.4 mm 1 m/s 732 mmHg 52%
    12:00 +34°C° 0.4 mm 1 m/s 731 mmHg 55%
    13:00 +36°C° 0.4 mm 2 m/s 731 mmHg 58%
    14:00 +34°C° 1.2 mm 1 m/s 730 mmHg 61%
    15:00 +33°C° 1.2 mm 1 m/s 729 mmHg 64%
    16:00 +32°C° 1.2 mm 1 m/s 729 mmHg 67%
    17:00 +30°C° 1.7 mm 1 m/s 729 mmHg 74%
    18:00 +29°C° 1.7 mm 1 m/s 730 mmHg 81%
    19:00 +27°C° 1.7 mm 1 m/s 731 mmHg 88%
    20:00 +27°C° 1.8 mm 1 m/s 731 mmHg 90%
    21:00 +26°C° 1.8 mm 1 m/s 732 mmHg 91%
    22:00 +26°C° 1.8 mm 1 m/s 733 mmHg 92%
    23:00 +26°C° 0.5 mm 1 m/s 732 mmHg 92%

    25 Octobre, Jeudi

    Heure Température Précipitation Vent Pression Humidité
    00:00 +25°C° 0.5 mm 1 m/s 732 mmHg 92%
    01:00 +25°C° 0.5 mm 1 m/s 731 mmHg 92%
    02:00 +25°C° 0.2 mm 1 m/s 731 mmHg 92%
    03:00 +25°C° 0.2 mm 1 m/s 731 mmHg 91%
    04:00 +25°C° 0.2 mm 1 m/s 730 mmHg 90%
    05:00 +25°C° 0.1 mm 1 m/s 731 mmHg 87%
    06:00 +26°C° 0.1 mm 1 m/s 732 mmHg 84%
    07:00 +27°C° 0.1 mm 1 m/s 732 mmHg 81%
    08:00 +29°C° 0.1 mm 1 m/s 733 mmHg 72%
    09:00 +32°C° 0.1 mm 1 m/s 733 mmHg 62%
    10:00 +34°C° 0.1 mm 1 m/s 733 mmHg 53%
    11:00 +34°C° 0.5 mm 1 m/s 732 mmHg 54%
    12:00 +34°C° 0.5 mm 1 m/s 731 mmHg 56%
    13:00 +35°C° 0.5 mm 1 m/s 730 mmHg 57%
    14:00 +34°C° 1.1 mm 1 m/s 729 mmHg 62%
    15:00 +32°C° 1.1 mm 1 m/s 729 mmHg 67%
    16:00 +31°C° 1.1 mm 1 m/s 728 mmHg 71%
    17:00 +30°C° 2.4 mm 1 m/s 729 mmHg 76%
    18:00 +29°C° 2.4 mm 1 m/s 730 mmHg 81%
    19:00 +27°C° 2.4 mm 1 m/s 730 mmHg 86%
    20:00 +27°C° 4 mm 1 m/s 731 mmHg 89%
    21:00 +26°C° 4 mm 1 m/s 732 mmHg 93%
    22:00 +26°C° 4 mm 1 m/s 732 mmHg 96%
    23:00 +26°C° 1.9 mm 1 m/s 732 mmHg 96%

    26 Octobre, Vendredi

    Heure Température Précipitation Vent Pression Humidité
    00:00 +25°C° 1.9 mm 1 m/s 731 mmHg 96%
    01:00 +25°C° 1.9 mm 1 m/s 731 mmHg 96%
    02:00 +25°C° 0.9 mm 1 m/s 731 mmHg 96%
    03:00 +25°C° 0.9 mm 1 m/s 731 mmHg 96%
    04:00 +25°C° 0.9 mm 1 m/s 731 mmHg 95%
    05:00 +25°C° 0.4 mm 1 m/s 731 mmHg 95%
    06:00 +26°C° 0.4 mm 1 m/s 732 mmHg 94%
    07:00 +26°C° 0.4 mm 1 m/s 732 mmHg 93%
    08:00 +28°C° 0.3 mm 1 m/s 733 mmHg 83%
    09:00 +30°C° 0.3 mm 1 m/s 733 mmHg 74%
    10:00 +32°C° 0.3 mm 1 m/s 733 mmHg 64%
    11:00 +32°C° 0.3 mm 1 m/s 732 mmHg 63%
    12:00 +32°C° 0.3 mm 1 m/s 731 mmHg 61%
    13:00 +33°C° 0.3 mm 1 m/s 731 mmHg 59%
    14:00 +32°C° 0.2 mm 1 m/s 730 mmHg 61%
    15:00 +32°C° 0.2 mm 1 m/s 730 mmHg 62%
    16:00 +31°C° 0.2 mm 1 m/s 729 mmHg 64%
    17:00 +30°C° 0.3 mm 1 m/s 730 mmHg 69%
    18:00 +28°C° 0.3 mm 1 m/s 731 mmHg 73%
    19:00 +27°C° 0.3 mm 1 m/s 731 mmHg 78%
    20:00 +26°C° 0.2 mm 1 m/s 732 mmHg 79%
    21:00 +26°C° 0.2 mm 1 m/s 732 mmHg 80%
    22:00 +25°C° 0.2 mm 1 m/s 733 mmHg 82%
    23:00 +25°C° 0.1 mm 1 m/s 732 mmHg 82%

    27 Octobre, Samedi

    Heure Température Précipitation Vent Pression Humidité
    00:00 +25°C° 0.1 mm 1 m/s 732 mmHg 82%
    01:00 +25°C° 0.1 mm 1 m/s 732 mmHg 82%
    02:00 +25°C° 0.2 mm 1 m/s 732 mmHg 82%
    03:00 +25°C° 0.2 mm 1 m/s 732 mmHg 83%
    04:00 +25°C° 0.2 mm 1 m/s 732 mmHg 83%
    05:00 +25°C° 0.1 mm 1 m/s 732 mmHg 82%
    06:00 +25°C° 0.1 mm 1 m/s 733 mmHg 82%
    07:00 +24°C° 0.1 mm 0 m/s 733 mmHg 81%
    08:00 +26°C° 0.1 mm 0 m/s 734 mmHg 72%
    09:00 +30°C° 0.1 mm 1 m/s 734 mmHg 64%
    10:00 +32°C° 0.1 mm 1 m/s 734 mmHg 56%
    11:00 +33°C° 0.1 mm 1 m/s 733 mmHg 52%
    12:00 +34°C° 0.1 mm 1 m/s 732 mmHg 49%
    13:00 +35°C° 0.1 mm 1 m/s 731 mmHg 45%
    14:00 +34°C° 0 mm 1 m/s 731 mmHg 47%
    15:00 +34°C° 0 mm 1 m/s 730 mmHg 48%
    16:00 +33°C° 0 mm 1 m/s 730 mmHg 50%
    17:00 +31°C° 0 mm 1 m/s 731 mmHg 56%
    18:00 +29°C° 0 mm 1 m/s 731 mmHg 62%
    19:00 +27°C° 0 mm 1 m/s 732 mmHg 68%
    20:00 +26°C° 0 mm 1 m/s 732 mmHg 69%
    21:00 +26°C° 0 mm 1 m/s 733 mmHg 70%
    22:00 +25°C° 0 mm 1 m/s 733 mmHg 71%
    23:00 +25°C° 0 mm 1 m/s 733 mmHg 72%

    28 Octobre, Dimanche

    Heure Température Précipitation Vent Pression Humidité
    00:00 +25°C° 0 mm 1 m/s 733 mmHg 73%
    01:00 +25°C° 0 mm 1 m/s 732 mmHg 74%
    02:00 +25°C° 0 mm 1 m/s 732 mmHg 75%
    03:00 +24°C° 0 mm 1 m/s 732 mmHg 75%
    04:00 +24°C° 0 mm 1 m/s 732 mmHg 75%
    05:00 +25°C° 0 mm 1 m/s 732 mmHg 74%
    06:00 +26°C° 0 mm 1 m/s 733 mmHg 73%
    07:00 +26°C° 0 mm 1 m/s 734 mmHg 72%
    08:00 +29°C° 0 mm 1 m/s 734 mmHg 64%
    09:00 +31°C° 0 mm 1 m/s 734 mmHg 57%
    10:00 +34°C° 0 mm 1 m/s 734 mmHg 49%
    11:00 +34°C° 0.1 mm 1 m/s 733 mmHg 48%
    12:00 +35°C° 0.1 mm 1 m/s 732 mmHg 48%
    13:00 +35°C° 0.1 mm 1 m/s 731 mmHg 48%
    14:00 +35°C° 0.2 mm 1 m/s 730 mmHg 51%
    15:00 +34°C° 0.2 mm 1 m/s 730 mmHg 54%
    16:00 +34°C° 0.2 mm 1 m/s 729 mmHg 57%
    17:00 +32°C° 0.4 mm 1 m/s 730 mmHg 64%
    18:00 +29°C° 0.4 mm 1 m/s 730 mmHg 71%
    19:00 +27°C° 0.4 mm 1 m/s 731 mmHg 78%
    20:00 +27°C° 0.5 mm 1 m/s 732 mmHg 80%
    21:00 +26°C° 0.5 mm 1 m/s 732 mmHg 81%
    22:00 +26°C° 0.5 mm 1 m/s 733 mmHg 83%
    23:00 +26°C° 0.4 mm 1 m/s 732 mmHg 84%
    Voir plus